CDT,Max TemperatureF,Mean TemperatureF,Min TemperatureF,Max Dew PointF,MeanDew PointF,Min DewpointF,Max Humidity, Mean Humidity, Min Humidity, Max Sea Level PressureIn, Mean Sea Level PressureIn, Min Sea Level PressureIn, Max VisibilityMiles, Mean VisibilityMiles, Min VisibilityMiles, Max Wind SpeedMPH, Mean Wind SpeedMPH, Max Gust SpeedMPH,PrecipitationIn, CloudCover, Events, WindDirDegrees
2012-10-1,80,78,75,66,62,59,69,58,48,29.91,29.85,29.81,10,10,10,13,8,15,0.00,0,,354
2012-10-2,86,82,78,66,63,55,65,55,42,29.98,29.92,29.88,10,10,10,10,6,15,0.00,0,,312
2012-10-3,84,82,80,73,64,54,74,56,39,30.02,29.98,29.95,10,10,10,24,10,15,0.00,0,,138
2012-10-4,84,83,82,75,73,70,79,71,66,30.10,30.05,30.00,10,10,6,26,22,28,0.00,2,,143
2012-10-5,82,81,80,72,69,66,74,66,61,30.10,30.03,29.98,10,10,10,17,13,,0.00,1,,121
2012-10-6,82,81,80,72,67,64,74,63,58,30.00,29.95,29.90,10,10,10,16,11,,0.00,2,,88
2012-10-7,80,76,73,72,70,66,89,77,69,30.07,30.01,29.96,10,8,4,20,12,26,0.00,6,,25
2012-10-8,77,74,71,68,66,64,83,79,73,30.15,30.08,30.04,10,9,8,20,12,26,0.00,8,,7
2012-10-9,80,78,77,75,70,66,84,72,65,30.06,30.00,29.95,10,10,9,21,17,,0.00,2,,103
2012-10-10,84,82,80,77,76,73,84,79,74,30.07,30.01,29.96,10,10,7,24,15,,0.00,1,,123
2012-10-11,82,81,80,75,74,72,84,77,70,30.12,30.06,30.01,10,10,3,28,19,,0.14,3,,108
2012-10-12,82,81,80,75,74,72,84,78,70,30.14,30.08,30.05,10,10,8,23,18,,0.00,3,,105
2012-10-13,84,82,80,77,74,72,84,74,70,30.09,30.02,29.94,10,9,7,28,22,30,0.00,2,,134
2012-10-14,82,82,82,73,71,68,74,68,62,30.04,29.99,29.93,10,10,8,30,21,32,0.00,1,,140
2012-10-15,82,80,78,75,72,72,84,75,70,30.05,29.99,29.93,10,10,9,13,8,,0.00,1,,19
2012-10-16,82,80,78,73,71,68,79,73,62,29.95,29.86,29.77,10,10,10,17,11,,0.00,1,,154
2012-10-17,82,81,80,77,74,70,84,76,70,29.80,29.73,29.65,10,9,6,26,21,33,0.00,1,,172
2012-10-18,84,83,82,79,77,77,89,84,79,29.87,29.77,29.69,7,5,1,24,18,14,0.00,2,,150
2012-10-19,80,80,80,77,71,66,89,72,61,29.98,29.92,29.86,10,9,5,24,16,28,0.00,2,,42
2012-10-20,82,81,80,75,74,72,84,76,74,29.93,29.89,29.83,10,10,8,23,17,,0.00,2,,131
2012-10-21,82,82,82,77,74,72,84,75,70,29.95,29.90,29.86,10,9,7,23,20,24,0.00,2,,142
2012-10-22,82,81,80,75,72,70,84,73,66,29.98,29.93,29.90,10,10,4,26,20,29,0.00,2,,127
2012-10-23,82,81,80,72,69,68,74,68,62,29.96,29.93,29.90,10,10,10,22,18,,0.00,2,,111
2012-10-24,82,81,80,72,69,66,74,67,61,29.97,29.92,29.87,10,10,9,18,14,,0.00,1,,118
2012-10-25,82,81,80,73,72,68,79,72,65,29.90,29.85,29.82,10,10,9,21,17,,0.00,1,,135
2012-10-26,82,74,66,73,67,61,88,78,66,30.12,29.98,29.88,10,9,6,21,13,28,0.00,3,,28
2012-10-27,68,64,60,61,54,46,88,72,49,30.20,30.13,30.08,10,10,5,23,14,30,0.00,4,,337
2012-10-28,68,67,66,52,49,45,60,51,43,30.21,30.16,30.12,10,10,10,10,8,20,0.00,2,,3
2012-10-29,71,70,68,55,51,46,57,51,43,30.22,30.17,30.12,10,10,10,16,8,18,0.00,2,,35
2012-10-30,77,73,69,64,58,54,65,58,53,30.14,30.05,29.99,10,10,10,18,11,17,0.00,1,,129
2012-10-31,80,78,77,72,69,64,78,74,65,30.04,29.99,29.95,10,10,9,17,13,22,0.00,1,,143